Cloud_Cover
100 100 100 100 100 100 100 100 100 100 100 100 100 100 5 100 100 98 100 100 100 100 100 99 100 100 99 100 90 72 92 100 100 100 100 100 100 100 100 100 100 100 100 100
100 100 100 100 100 100 100 100 100 100 100 95 100 100 88 100 100 100 100 99 100 100 100 100 93 100 100 100 91 65 98 100 100 100 100 100 100 100 100 100 100 100 100 100
100 100 99 100 100 100 100 100 100 100 100 100 99 100 90 97 100 100 100 100 100 100 100 95 79 100 61 100 100 100 100 100 100 100 100 100 100 100 100 100 100 100 100 100
100 100 99 100 100 100 100 100 100 100 100 100 95 39 42 5 76 100 100 100 100 100 100 100 100 95 100 68 99 100 100 100 100 100 100 100 100 100 100 93 100 100 100 100
100 100 76 100 100 96 100 100 100 100 100 98 100 15 77 5 97 70 100 100 100 100 100 100 100 84 100 100 100 100 100 100 100 100 100 100 100 100 100 100 100 100 100 100
100 100 100 98 100 100 100 100 100 100 100 99 47 77 95 38 100 98 100 100 100 100 82 100 33 78 100 100 100 100 100 100 100 100 100 100 100 100 100 100 100 100 100 100
100 100 100 100 100 100 100 100 100 100 100 38 15 75 96 100 100 100 100 100 100 93 6 65 93 98 88 80 87 100 100 100 100 100 100 100 100 100 100 100 100 100 100 100
100 100 100 100 100 95 100 100 100 100 100 99 99 29 99 100 100 100 100 100 70 49 95 100 98 97 100 87 100 100 100 100 100 100 100 100 100 100 100 100 100 100 100 100
100 100 100 100 100 100 100 100 100 100 100 100 100 100 62 97 54 98 100 100 100 100 100 100 100 100 100 100 100 100 100 100 100 100 100 100 100 100 100 100 100 100 100 100
98 100 100 100 100 100 100 82 100 100 100 100 75 98 100 98 100 82 100 100 100 100 100 100 100 100 100 100 100 100 100 100 100 100 100 100 100 100 100 100 100 100 100 100
100 100 100 100 100 100 100 100 100 100 100 100 100 94 100 100 100 99 100 100 100 100 100 100 100 44 8 60 100 100 100 100 100 100 100 100 100 100 100 100 100 100 100 100
100 100 100 100 100 100 90 44 89 98 100 100 100 100 100 100 100 100 100 100 100 100 100 100 75 41 30 34 56 93 100 100 100 100 100 100 100 100 100 100 100 100 100 100
100 100 100 100 100 99 65 45 16 87 100 100 100 100 100 100 100 100 100 100 100 100 100 100 100 100 100 100 98 80 88 100 100 100 100 100 100 100 100 100 100 100 100 100
100 100 100 100 86 100 100 40 64 99 100 100 100 100 100 100 100 100 100 100 100 100 100 100 100 100 100 98 22 86 100 100 100 100 100 100 100 100 100 100 100 100 100 100
80 98 100 100 98 100 100 70 5 39 6 90 100 100 100 100 100 100 100 100 100 100 100 100 100 100 21 20 86 42 86 100 100 100 100 100 100 100 100 100 100 100 100 92
46 86 100 100 100 100 100 84 6 5 5 6 100 100 100 100 100 100 100 100 100 100 100 100 90 23 76 100 100 100 66 100 100 100 100 100 100 100 100 100 100 99 100 100
100 100 98 100 100 100 63 5 35 5 0 0 99 100 100 100 100 100 100 100 100 100 100 100 100 16 69 98 100 94 100 90 100 100 100 100 100 100 100 100 100 100 100 100
78 82 96 93 100 100 5 0 0 0 0 0 86 100 100 100 100 100 100 100 100 100 100 100 100 100 100 100 99 100 82 100 100 100 100 100 100 100 100 100 100 100 100 100
82 100 100 100 62 2 0 0 0 0 0 0 7 100 100 100 100 100 100 100 100 100 100 100 100 100 100 100 100 100 100 100 100 100 100 100 100 100 100 100 100 100 100 100
100 100 100 92 51 32 0 0 0 3 0 1 0 52 100 100 82 64 100 100 100 100 100 100 100 100 100 100 100 100 100 100 100 100 100 100 100 100 100 100 100 100 100 100
95 100 72 80 56 5 3 6 26 0 11 39 57 98 100 100 100 100 100 100 100 100 100 100 100 100 100 100 100 100 100 100 100 100 100 100 100 100 100 100 100 100 100 100
92 91 74 84 83 40 27 87 100 99 100 100 100 100 100 100 100 100 100 100 100 100 100 100 100 100 100 100 100 100 100 100 100 100 100 100 100 100 100 100 100 100 100 100
18 74 97 100 100 45 100 100 100 100 100 100 100 100 100 100 100 100 100 100 100 100 100 100 100 100 100 100 100 100 100 100 100 100 100 100 100 100 100 100 100 100 100 100
5 95 69 49 86 100 90 100 100 100 100 100 100 100 100 90 100 100 100 100 100 100 100 100 100 100 100 100 100 100 100 100 100 100 100 100 100 100 100 100 100 100 100 100
38 97 16 22 100 100 100 100 100 100 100 100 100 100 100 100 100 100 100 100 100 100 100 100 100 100 100 100 100 100 100 100 100 100 100 100 100 100 100 100 100 100 100 100
91 67 26 94 94 100 100 100 100 100 100 100 100 100 100 100 100 100 100 100 100 100 100 100 100 100 100 100 100 100 100 100 100 100 100 100 100 100 100 100 100 100 100 100